Change the Weather History Date:

Friday, July 11, 2014

  Actual Average Record
Temperature  
Mean Temperature 73 °F 76 °F  
Max Temperature 83 °F 85 °F 107 °F (1936)
Min Temperature 63 °F 68 °F 51 °F (1978)
Degree Days  
Heating Degree Days 0 0  
Month to date heating degree days 0 0  
Since 1 June heating degree days 2 31  
Since 1 July heating degree days 0 0  
Cooling Degree Days 8 11  
Month to date cooling degree days 87 119  
Year to date cooling degree days 449 403  
Since 1 June cooling degree days 338 329  
Growing Degree Days 22 (Base 50)    
Moisture  
Dew Point 54 °F    
Average Humidity 47    
Maximum Humidity 72    
Minimum Humidity 20    
Precipitation  
Precipitation T in 0.13 in 6.16 in (1957)
Month to date precipitation 1.18 1.32  
Year to date precipitation 20.19 19.87  
Sea Level Pressure  
Sea Level Pressure 30.14 in    
Wind  
Wind Speed 7 mph (South)    
Max Wind Speed 14 mph    
Max Gust Speed 20 mph    
Visibility 10 miles    
Events      
T = Trace of Precipitation, MM = Missing Value Source: NWS Daily Summary

Daily Weather History Graph

Daily Weather History Graph

Search for Another Location

Airport or City:

Trip Planner

Search our weather history database for the weather conditions in past years. The results will help you decide how hot, cold, wet, or windy it might be!

Date:

Astronomy

Jul. 11, 2014 Rise Set
Actual Time 5:26 AM CDT 8:26 PM CDT
Civil Twilight 4:52 AM CDT 8:59 PM CDT
Nautical Twilight 4:10 AM CDT 9:42 PM CDT
Astronomical Twilight 3:20 AM CDT 10:32 PM CDT
Moon 7:35 PM CDT (7/11) 4:39 AM CDT (7/11)
Length of Visible Light 16h 06m
Length of Day
15h 00m
Waxing Gibbous, 99% of the Moon is Illuminated
Jul 11
Waxing Gibbous
Jul 12
Full
Jul 18
Last Quarter
Jul 26
New
Aug 3
First Quarter

Hourly Weather History & Observations

Time (CDT) Temp. Heat Index Dew Point Humidity Pressure Visibility Wind Dir Wind Speed Gust Speed Precip Events Conditions
12:51 AM 68.0 °F - 57.0 °F 68% 30.16 in 10.0 mi SE 3.5 mph - N/A   Mostly Cloudy
1:51 AM 68.0 °F - 57.0 °F 68% 30.16 in 10.0 mi SE 3.5 mph - N/A   Mostly Cloudy
2:51 AM 66.9 °F - 53.1 °F 61% 30.17 in 10.0 mi SE 4.6 mph - N/A   Mostly Cloudy
3:51 AM 66.0 °F - 53.1 °F 63% 30.17 in 10.0 mi SSE 5.8 mph - N/A   Mostly Cloudy
4:51 AM 64.4 °F - 53.6 °F 68% 30.18 in 10.0 mi SSE 4.6 mph - N/A   Mostly Cloudy
5:51 AM 63.0 °F - 54.0 °F 72% 30.17 in 10.0 mi South 3.5 mph - N/A   Scattered Clouds
6:51 AM 66.0 °F - 54.0 °F 65% 30.18 in 10.0 mi South 5.8 mph - N/A   Partly Cloudy
7:51 AM 70.0 °F - 55.0 °F 59% 30.20 in 10.0 mi South 3.5 mph - N/A   Partly Cloudy
8:51 AM 73.9 °F - 52.0 °F 46% 30.19 in 10.0 mi South 4.6 mph - N/A   Partly Cloudy
9:51 AM 75.9 °F - 52.0 °F 43% 30.18 in 10.0 mi Variable 6.9 mph - N/A   Partly Cloudy
10:51 AM 78.1 °F - 51.1 °F 39% 30.18 in 10.0 mi Variable 3.5 mph - N/A   Scattered Clouds
11:51 AM 80.1 °F - 48.0 °F 32% 30.17 in 10.0 mi SE 6.9 mph - N/A   Mostly Cloudy
12:51 PM 82.4 °F - 51.8 °F 35% 30.18 in 10.0 mi WSW 9.2 mph - N/A   Mostly Cloudy
1:51 PM 82.0 °F - 48.9 °F 31% 30.14 in 10.0 mi SSW 4.6 mph - N/A   Mostly Cloudy
2:51 PM 80.6 °F - 48.2 °F 32% 30.15 in 10.0 mi SSW 9.2 mph - N/A   Mostly Cloudy
3:51 PM 82.0 °F - 48.0 °F 30% 30.11 in 10.0 mi South 9.2 mph - N/A   Mostly Cloudy
4:51 PM 81.0 °F - 51.1 °F 35% 30.07 in 10.0 mi SSE 11.5 mph - N/A   Overcast
5:51 PM 81.0 °F 80.5 °F 54.0 °F 39% 30.08 in 10.0 mi SSE 9.2 mph - 0.00 in   Overcast
6:51 PM 80.1 °F 80.2 °F 55.9 °F 43% 30.09 in 10.0 mi South 8.1 mph - N/A   Mostly Cloudy
7:51 PM 80.1 °F 80.4 °F 57.0 °F 45% 30.09 in 10.0 mi South 8.1 mph - N/A   Mostly Cloudy
8:51 PM 79.0 °F - 57.9 °F 48% 30.09 in 10.0 mi South 5.8 mph - N/A   Mostly Cloudy
9:51 PM 79.0 °F - 57.9 °F 48% 30.10 in 10.0 mi South 4.6 mph - N/A   Overcast
10:51 PM 78.1 °F - 59.0 °F 52% 30.10 in 10.0 mi South 5.8 mph - N/A   Overcast
11:51 PM 78.1 °F - 60.1 °F 54% 30.10 in 10.0 mi SSE 8.1 mph - N/A   Overcast